COSMOS 2485 (747) (39155 NORAD) Tracking and Keplerian Element Data

This shows tracking and keplerian element data for the satellite.

Feedback or suggestion? Click here.




ElementValue
Catalog39155
NameCOSMOS 2485 (747)
Epoch Orbit9165
Epoch Day34.55923038
Epoch Year2025
RAAN90.3732
Inclination65.1485
Eccentricity0.0025011
Argument of Perigee234.6732
Mean Anonmoly125.1645
Mean Motion2.13104289
Decay Rate-2E-08
L11 39155U 13019A 25034.55923038 -.00000002 00000+0 00000+0 0 9997
L22 39155 65.1485 90.3732 0025011 234.6732 125.1645 2.13104289 91659



Live tracking and technical data element details for COSMOS 2485 (747) (NORAD 39155). COSMOS 2485 (747) can be tracked NOW for your location showing map with azimuth and elevation plus other details from your city location.







IsCatalogInMostPopularTable: catalog: 39155, numindb: 591
Update: records affected: 1



GetName: 39155 COSMOS 2485 (747)

Hit Count: updated at: Fri, 16 May 2025 10:35:29 GMT